Regional Weather Roundup
Issued by NWS

Home | Current Version | Previous Version | Text Only | Print | Product List | Glossary Off
Versions: 1 2 3 4 5 6 7 8 9 10 11 12 13 14 15 16 17 18 19 20 21 22 23 24 25 26 27 28 29 30 31 32 33 34 35 36 37 38 39 40 41 42 43 44 45 46 47 48 49 50

000
ASUS45 KCYS 301110
RWRWY

WYOMING REGIONAL WEATHER ROUNDUP
NATIONAL WEATHER SERVICE CHEYENNE WY
500 AM MDT THU JUL 30 2015

NOTE:  "FAIR" INDICATES FEW OR NO CLOUDS BELOW 12,000 FEET
WITH NO SIGNIFICANT WEATHER AND/OR OBSTRUCTIONS TO VISIBILITY.

WYZ001-301200-
YELLOWSTONE NATIONAL PARK

CITY           SKY/WX    TMP DP  RH WIND       PRES   REMARKS
LK YELLOWSTONE   N/A     35  32  88 NW5       30.54S WCI  31
W YELLOWSTONE  NOT AVBL

$$
WYZ002>013-054>058-071-098>099-301200-
NORTHERN WYOMING

CITY           SKY/WX    TMP DP  RH WIND       PRES   REMARKS
JACKSON        FAIR      39  36  87 N6        30.46S WCI  35
CODY           FAIR      54  36  50 CALM      30.34S
GREYBULL       FAIR      52  38  58 SE5       30.28R
WORLAND        FAIR      52  29  41 S10       30.29R
SHERIDAN       FAIR      48  40  73 CALM      30.28S
BUFFALO        FAIR      58  34  40 W12       30.34S
GILLETTE       FAIR      53  37  54 S7        30.29S
HULETT         FAIR      52  37  58 S6        30.30S
NEWCASTLE      FAIR      54  36  50 N12       30.29S

$$
WYZ014>020-022>026-101>103-301200-
CENTRAL WYOMING

CITY           SKY/WX    TMP DP  RH WIND       PRES   REMARKS
BIG PINEY      FAIR      39  29  67 CALM      30.47R
PINEDALE       FAIR      36  32  87 NW5       30.47S WCI  32
DUBOIS         FAIR      43  30  61 W14       30.47R
LANDER         FAIR      55  31  39 W3        30.35R
RIVERTON       FAIR      54  33  45 N6        30.35S
CASPER         FAIR      46  30  53 S6        30.35R
DOUGLAS        FAIR      48  37  65 NW3       30.33R

$$
WYZ021-027>030-104>119-301200-
SOUTHERN WYOMING

CITY           SKY/WX    TMP DP  RH WIND       PRES   REMARKS
EVANSTON       FAIR      51  25  36 CALM      30.45F
KEMMERER       FAIR      43  30  61 N10       30.47F
FORT BRIDGER   SUNNY     55  23  28 W6        30.47F
ROCK SPRINGS   FAIR      51  20  29 W8        30.42S
DIXON          FAIR      46  22  39 CALM      30.44R
RAWLINS        FAIR      42  15  33 CALM      30.42R
SARATOGA       FAIR      45  21  39 S7        30.45
LARAMIE        FAIR      40  34  79 W7        30.45S
CHEYENNE       FAIR      54  47  77 W9        30.35S
TORRINGTON     FAIR      57  49  74 N9        30.24R
PINE BLUFFS    FAIR      52  46  82 W7        30.32S

$$



USA.gov is the U.S. government's official web portal to all federal, state and local government web resources and services.